When you browse on this site, cookies collect data to enhance your experience and personalize the content and advertising you see.
Visit our Privacy Policy to learn more. By continuing to use the site, you agree to this use of cookies and data.
  • In Portugal
  • List of Countries
  • For 7 days
  • Water Temperature
  • Satellite Maps
  • Weather Map
  • Weather Widgets
  • user-avatar
    Login

    Hourly Weather Al Hilla

    Today, 16 July, Tuesday

    Time Temperature Precipitation Wind Pressure Humidity
    00:00 +35°C° 0 mm 5 mps 746 mmHg 16%
    01:00 +34°C° 0 mm 5 mps 746 mmHg 17%
    02:00 +34°C° 0 mm 5 mps 746 mmHg 18%
    03:00 +33°C° 0 mm 5 mps 746 mmHg 20%
    04:00 +33°C° 0 mm 5 mps 746 mmHg 22%
    05:00 +32°C° 0 mm 5 mps 747 mmHg 23%
    06:00 +32°C° 0 mm 5 mps 747 mmHg 25%
    07:00 +35°C° 0 mm 6 mps 747 mmHg 21%
    08:00 +39°C° 0 mm 7 mps 747 mmHg 18%
    09:00 +41°C° 0 mm 8 mps 747 mmHg 15%
    10:00 +44°C° 0 mm 9 mps 747 mmHg 14%
    11:00 +45°C° 0 mm 9 mps 747 mmHg 12%
    12:00 +48°C° 0 mm 9 mps 747 mmHg 10%
    13:00 +48°C° 0 mm 9 mps 747 mmHg 11%
    14:00 +48°C° 0 mm 10 mps 746 mmHg 11%
    15:00 +48°C° 0 mm 10 mps 746 mmHg 11%
    16:00 +47°C° 0 mm 9 mps 746 mmHg 11%
    17:00 +46°C° 0 mm 8 mps 746 mmHg 12%
    18:00 +45°C° 0 mm 8 mps 745 mmHg 12%
    19:00 +43°C° 0 mm 7 mps 746 mmHg 14%
    20:00 +40°C° 0 mm 6 mps 746 mmHg 16%
    21:00 +36°C° 0 mm 5 mps 746 mmHg 18%
    22:00 +36°C° 0 mm 5 mps 746 mmHg 19%
    23:00 +35°C° 0 mm 5 mps 746 mmHg 20%

    Tomorrow, 17 July, Wednesday

    Time Temperature Precipitation Wind Pressure Humidity
    00:00 +34°C° 0 mm 5 mps 746 mmHg 21%
    01:00 +34°C° 0 mm 5 mps 746 mmHg 22%
    02:00 +33°C° 0 mm 5 mps 746 mmHg 24%
    03:00 +33°C° 0 mm 5 mps 746 mmHg 25%
    04:00 +33°C° 0 mm 5 mps 746 mmHg 26%
    05:00 +32°C° 0 mm 6 mps 746 mmHg 28%
    06:00 +32°C° 0 mm 6 mps 747 mmHg 29%
    07:00 +34°C° 0 mm 7 mps 747 mmHg 27%
    08:00 +37°C° 0 mm 8 mps 747 mmHg 25%
    09:00 +39°C° 0 mm 9 mps 748 mmHg 23%
    10:00 +42°C° 0 mm 9 mps 748 mmHg 20%
    11:00 +44°C° 0 mm 9 mps 748 mmHg 16%
    12:00 +47°C° 0 mm 9 mps 747 mmHg 13%
    13:00 +47°C° 0 mm 9 mps 747 mmHg 12%
    14:00 +47°C° 0 mm 9 mps 747 mmHg 11%
    15:00 +48°C° 0 mm 9 mps 746 mmHg 10%
    16:00 +46°C° 0 mm 8 mps 746 mmHg 10%
    17:00 +46°C° 0 mm 8 mps 746 mmHg 10%
    18:00 +45°C° 0 mm 7 mps 746 mmHg 10%
    19:00 +42°C° 0 mm 6 mps 746 mmHg 12%
    20:00 +39°C° 0 mm 5 mps 746 mmHg 15%
    21:00 +36°C° 0 mm 4 mps 747 mmHg 17%
    22:00 +36°C° 0 mm 4 mps 747 mmHg 18%
    23:00 +35°C° 0 mm 4 mps 746 mmHg 18%

    Day after tomorrow, 18 July, Thursday

    Time Temperature Precipitation Wind Pressure Humidity
    00:00 +35°C° 0 mm 3 mps 746 mmHg 19%
    01:00 +34°C° 0 mm 4 mps 746 mmHg 19%
    02:00 +34°C° 0 mm 4 mps 746 mmHg 20%
    03:00 +34°C° 0 mm 5 mps 746 mmHg 20%
    04:00 +34°C° 0 mm 5 mps 747 mmHg 21%
    05:00 +34°C° 0 mm 5 mps 747 mmHg 22%
    06:00 +34°C° 0 mm 5 mps 747 mmHg 22%
    07:00 +38°C° 0 mm 6 mps 748 mmHg 18%
    08:00 +41°C° 0 mm 8 mps 748 mmHg 15%
    09:00 +45°C° 0 mm 9 mps 748 mmHg 11%
    10:00 +48°C° 0 mm 9 mps 748 mmHg 10%
    11:00 +49°C° 0 mm 10 mps 748 mmHg 9%
    12:00 +52°C° 0 mm 10 mps 747 mmHg 9%
    13:00 +52°C° 0 mm 10 mps 747 mmHg 8%
    14:00 +52°C° 0 mm 11 mps 747 mmHg 8%
    15:00 +52°C° 0 mm 11 mps 746 mmHg 8%
    16:00 +50°C° 0 mm 10 mps 746 mmHg 9%
    17:00 +49°C° 0 mm 10 mps 746 mmHg 10%
    18:00 +48°C° 0 mm 9 mps 746 mmHg 11%
    19:00 +45°C° 0 mm 8 mps 746 mmHg 13%
    20:00 +42°C° 0 mm 6 mps 746 mmHg 15%
    21:00 +39°C° 0 mm 5 mps 747 mmHg 17%
    22:00 +37°C° 0 mm 4 mps 747 mmHg 18%
    23:00 +37°C° 0 mm 4 mps 746 mmHg 18%

    19 July, Friday

    Time Temperature Precipitation Wind Pressure Humidity
    00:00 +36°C° 0 mm 4 mps 746 mmHg 19%
    01:00 +35°C° 0 mm 4 mps 746 mmHg 19%
    02:00 +35°C° 0 mm 4 mps 746 mmHg 19%
    03:00 +34°C° 0 mm 4 mps 746 mmHg 19%
    04:00 +34°C° 0 mm 5 mps 747 mmHg 20%
    05:00 +34°C° 0 mm 5 mps 747 mmHg 22%
    06:00 +33°C° 0 mm 5 mps 747 mmHg 23%
    07:00 +36°C° 0 mm 6 mps 747 mmHg 20%
    08:00 +40°C° 0 mm 6 mps 748 mmHg 17%
    09:00 +44°C° 0 mm 7 mps 748 mmHg 14%
    10:00 +45°C° 0 mm 7 mps 748 mmHg 12%
    11:00 +47°C° 0 mm 7 mps 748 mmHg 11%
    12:00 +49°C° 0 mm 7 mps 747 mmHg 10%
    13:00 +49°C° 0 mm 7 mps 747 mmHg 10%
    14:00 +50°C° 0 mm 7 mps 746 mmHg 10%
    15:00 +50°C° 0 mm 8 mps 746 mmHg 10%
    16:00 +49°C° 0 mm 8 mps 746 mmHg 10%
    17:00 +47°C° 0 mm 7 mps 746 mmHg 11%
    18:00 +46°C° 0 mm 7 mps 746 mmHg 12%
    19:00 +44°C° 0 mm 7 mps 746 mmHg 14%
    20:00 +41°C° 0 mm 6 mps 746 mmHg 16%
    21:00 +39°C° 0 mm 6 mps 747 mmHg 19%
    22:00 +38°C° 0 mm 6 mps 747 mmHg 19%
    23:00 +38°C° 0 mm 6 mps 747 mmHg 19%

    20 July, Saturday

    Time Temperature Precipitation Wind Pressure Humidity
    00:00 +36°C° 0 mm 7 mps 747 mmHg 19%
    01:00 +36°C° 0 mm 6 mps 747 mmHg 19%
    02:00 +35°C° 0 mm 6 mps 747 mmHg 20%
    03:00 +34°C° 0 mm 6 mps 747 mmHg 21%
    04:00 +34°C° 0 mm 6 mps 747 mmHg 23%
    05:00 +33°C° 0 mm 5 mps 747 mmHg 25%
    06:00 +33°C° 0 mm 5 mps 747 mmHg 27%
    07:00 +35°C° 0 mm 6 mps 748 mmHg 25%
    08:00 +39°C° 0 mm 7 mps 748 mmHg 24%
    09:00 +41°C° 0 mm 8 mps 748 mmHg 22%
    10:00 +44°C° 0 mm 8 mps 748 mmHg 19%
    11:00 +46°C° 0 mm 7 mps 748 mmHg 16%
    12:00 +49°C° 0 mm 7 mps 748 mmHg 12%
    13:00 +50°C° 0 mm 7 mps 747 mmHg 11%
    14:00 +50°C° 0 mm 7 mps 747 mmHg 10%
    15:00 +51°C° 0 mm 7 mps 747 mmHg 9%
    16:00 +50°C° 0 mm 7 mps 746 mmHg 9%
    17:00 +49°C° 0 mm 6 mps 746 mmHg 10%
    18:00 +48°C° 0 mm 6 mps 746 mmHg 10%
    19:00 +46°C° 0 mm 5 mps 746 mmHg 12%
    20:00 +43°C° 0 mm 5 mps 747 mmHg 14%
    21:00 +40°C° 0 mm 4 mps 747 mmHg 16%
    22:00 +38°C° 0 mm 4 mps 747 mmHg 17%
    23:00 +37°C° 0 mm 3 mps 747 mmHg 19%

    21 July, Sunday

    Time Temperature Precipitation Wind Pressure Humidity
    00:00 +36°C° 0 mm 3 mps 746 mmHg 20%
    01:00 +36°C° 0 mm 4 mps 746 mmHg 20%
    02:00 +36°C° 0 mm 4 mps 746 mmHg 20%
    03:00 +36°C° 0 mm 5 mps 746 mmHg 21%
    04:00 +36°C° 0 mm 5 mps 746 mmHg 21%
    05:00 +36°C° 0 mm 5 mps 746 mmHg 22%
    06:00 +35°C° 0 mm 5 mps 747 mmHg 22%
    07:00 +39°C° 0 mm 5 mps 747 mmHg 20%
    08:00 +42°C° 0 mm 6 mps 747 mmHg 17%
    09:00 +46°C° 0 mm 7 mps 747 mmHg 14%
    10:00 +49°C° 0 mm 7 mps 747 mmHg 12%
    11:00 +51°C° 0 mm 7 mps 747 mmHg 11%
    12:00 +53°C° 0 mm 7 mps 747 mmHg 9%
    13:00 +53°C° 0 mm 7 mps 746 mmHg 9%
    14:00 +55°C° 0 mm 7 mps 746 mmHg 8%
    15:00 +56°C° 0 mm 8 mps 745 mmHg 8%
    16:00 +55°C° 0 mm 8 mps 745 mmHg 8%
    17:00 +53°C° 0 mm 7 mps 745 mmHg 8%
    18:00 +52°C° 0 mm 7 mps 745 mmHg 9%
    19:00 +50°C° 0 mm 7 mps 745 mmHg 10%
    20:00 +46°C° 0 mm 7 mps 746 mmHg 11%
    21:00 +44°C° 0 mm 6 mps 746 mmHg 12%
    22:00 +44°C° 0 mm 6 mps 746 mmHg 12%
    23:00 +43°C° 0 mm 7 mps 746 mmHg 13%
    Show more